 久万の中村彰正氏の4月23日の観測が報告され,彗星は 2000年ほどの

長周期彗星でした.氏の CCD全光度は17.5等でした.



    C/2004 F2 (LINEAR)                                                    

T 2003 Dec. 26.66029 TT                                 Nakano

q   1.4306116            (2000.0)            P               Q

z  +0.0064069      Peri.  317.15639     -0.10829980     -0.42754917

 +/-0.0003710      Node   248.27575     -0.42323255     -0.79705845

e   0.9908342      Incl.  104.96194     -0.89952507     +0.42649681

From 68 observations 2004 Mar. 25-Apr. 24.

 

Date/        TT  R.A.(2000) Decl.     Delta   r     Daily motion  Mag.  Moon Age

              h    h  m       。  ,                      ,  / PA 。  m1      。

2004 Apr. 25 18  17 36.02  +20 23.4   1.505  2.188    57.7 / 323  18.3  128  .31

          26 18  17 33.57  +21 09.7   1.508  2.198    57.6 / 323  18.3  122  .41

          27 18  17 31.06  +21 55.5   1.511  2.208    57.3 / 322  18.3  114  .50

          28 18  17 28.51  +22 40.5   1.515  2.217    57.1 / 321  18.4  106  .60

          29 18  17 25.92  +23 25.0   1.519  2.227    56.7 / 320  18.4   97  .70

          30 18  17 23.28  +24 08.7   1.524  2.237    56.4 / 320  18.4   88  .79

     May   1 18  17 20.60  +24 51.6   1.529  2.247    56.0 / 319  18.4   79  .87

           2 18  17 17.88  +25 33.7   1.534  2.256    55.5 / 318  18.5   70  .94

           3 18  17 15.12  +26 14.9   1.541  2.266    55.1 / 317  18.5   62  .98

           4 18  17 12.33  +26 55.3   1.547  2.276    54.5 / 317  18.5   56 1.00

           5 18  17 09.51  +27 34.8   1.555  2.286    54.0 / 316  18.5   53  .99

           6 18  17 06.66  +28 13.3   1.562  2.295    53.4 / 315  18.6   54  .95

           7 18  17 03.78  +28 50.8   1.571  2.305    52.7 / 314  18.6   57  .88

           8 18  17 00.87  +29 27.3   1.579  2.315    52.1 / 313  18.6   63  .79

           9 18  16 57.94  +30 02.8   1.588  2.325    51.4 / 312  18.7   71  .69

          10 18  16 55.00  +30 37.2   1.598  2.335    50.7 / 311  18.7   79  .58

          11 18  16 52.03  +31 10.6   1.608  2.344    49.9 / 310  18.7   88  .47

          12 18  16 49.05  +31 42.9   1.619  2.354    49.2 / 310  18.8   96  .36

          13 18  16 46.07  +32 14.1   1.630  2.364    48.4 / 309  18.8  104  .26

          14 18  16 43.07  +32 44.1   1.641  2.374    47.6 / 308  18.8  111  .18

          15 18  16 40.07  +33 13.1   1.653  2.384    46.7 / 307  18.9  117  .11

          16 18  16 37.07  +33 41.0   1.666  2.394    45.9 / 306  18.9  121  .06

          17 18  16 34.07  +34 07.7   1.678  2.404    45.1 / 305  18.9  123  .02

          18 18  16 31.08  +34 33.3   1.692  2.414    44.2 / 304  19.0  123  .00

          19 18  16 28.10  +34 57.8   1.705  2.424    43.3 / 303  19.0  122  .00

          20 18  16 25.13  +35 21.2   1.719  2.434    42.4 / 302  19.0  118  .02

          21 18  16 22.17  +35 43.5   1.734  2.444    41.6 / 301  19.1  113  .06

          22 18  16 19.23  +36 04.8   1.748  2.454    40.7 / 300  19.1  107  .11

          23 18  16 16.31  +36 25.0   1.764  2.464    39.8 / 299  19.1  101  .18

          24 18  16 13.42  +36 44.1   1.779  2.473    38.9 / 298  19.2   94  .26

          25 18  16 10.55  +37 02.2   1.795  2.483    38.0 / 297  19.2   87  .34

          26 18  16 07.71  +37 19.3   1.811  2.493    37.1 / 296  19.3   79  .44

          27 18  16 04.90  +37 35.4   1.827  2.503    36.2 / 295  19.3   72  .54

          28 18  16 02.13  +37 50.6   1.844  2.513    35.4 / 294  19.3   66  .65

          29 18  15 59.39  +38 04.8   1.861  2.523    34.5 / 293  19.4   61  .75

          30 18  15 56.69  +38 18.1   1.879  2.533    33.6 / 292  19.4   58  .84

          31 18  15 54.03  +38 30.5   1.896  2.544    32.8 / 291  19.4   57  .91

     June  1 18  15 51.42  +38 42.0   1.914  2.554    31.9 / 290  19.5   58  .97

NAKANO

         **** Don't distribute anyone except personal use only ****

                (C) Copyright 2004 OAA/ComputingSection

write mail from CFAD0::NAKANO on 2004-04-25 00:39:58(JST).

 

    C/2004 F2 (LINEAR)                                                    

T 2003 Dec. 27.13550 TT                                 Nakano

q   1.4368488            (2000.0)            P               Q

                   Peri.  317.60735     -0.11032962     -0.42647479

                   Node   248.34508     -0.42981909     -0.79395381

e   1.0            Incl.  105.00204     -0.89614894     +0.43330890

From 57 observations 2004 Mar. 25-Apr. 1.



NAKANO

         **** Don't distribute anyone except personal use only ****

                (C) Copyright 2004 OAA/ComputingSection

write mail from CFAD0::NAKANO on 2004-04-24 06:00:27(JST).

 



◎C/2004 F2の軌道と予報位置です



  久万の中村彰正氏から3月31日の観測が報告されました.氏の CCD全光度は,

18.0等でした.



    C/2004 F2 (LINEAR)                                                    

T 2003 Dec. 27.09536 TT                                 Nakano

q   1.4355438            (2000.0)            P               Q

                   Peri.  317.52941     -0.11022305     -0.42645889

                   Node   248.33043     -0.42857774     -0.79458529

e   1.0            Incl.  104.97539     -0.89675638     +0.43216550

From 47 observations 2004 Mar. 25-31.

 

Date/        TT  R.A.(2000) Decl.     Delta   r     Daily motion  Mag.  Moon Age

              h    h  m       。  ,                      ,  / PA 。  m1      。

2004 Apr.  1 18  18 19.10  +01 02.3   1.586  1.967    49.8 / 339  17.9  123  .84

           2 18  18 17.91  +01 48.7   1.578  1.976    50.4 / 338  17.9  112  .91

           3 18  18 16.67  +02 35.6   1.571  1.985    51.0 / 338  18.0  100  .96

           4 18  18 15.39  +03 22.8   1.564  1.994    51.6 / 337  18.0   87  .99

           5 18  18 14.05  +04 10.4   1.557  2.003    52.2 / 337  18.0   75 1.00

           6 18  18 12.66  +04 58.3   1.551  2.012    52.8 / 336  18.0   63  .98

           7 18  18 11.22  +05 46.5   1.545  2.022    53.3 / 335  18.0   52  .93

           8 18  18 09.72  +06 35.0   1.539  2.031    53.9 / 335  18.0   42  .86

           9 18  18 08.18  +07 23.7   1.534  2.040    54.4 / 334  18.0   37  .76

          10 18  18 06.58  +08 12.6   1.529  2.049    54.9 / 333  18.0   36  .66

          11 18  18 04.92  +09 01.7   1.524  2.059    55.3 / 333  18.1   40  .55

          12 18  18 03.22  +09 50.9   1.520  2.068    55.8 / 332  18.1   48  .43

          13 18  18 01.45  +10 40.2   1.516  2.077    56.2 / 332  18.1   57  .33

          14 18  17 59.64  +11 29.6   1.513  2.087    56.5 / 331  18.1   68  .23

          15 18  17 57.76  +12 19.0   1.510  2.096    56.8 / 330  18.1   78  .15

          16 18  17 55.84  +13 08.3   1.508  2.106    57.1 / 330  18.1   89  .08

          17 18  17 53.85  +13 57.6   1.506  2.115    57.4 / 329  18.1   99  .03

          18 18  17 51.82  +14 46.7   1.505  2.125    57.6 / 328  18.2  109  .01

          19 18  17 49.73  +15 35.7   1.504  2.134    57.7 / 328  18.2  117  .00

          20 18  17 47.58  +16 24.4   1.503  2.144    57.8 / 327  18.2  125  .01

          21 18  17 45.38  +17 12.8   1.504  2.153    57.9 / 326  18.2  130  .04

          22 18  17 43.13  +18 01.0   1.504  2.163    57.9 / 326  18.2  134  .09

          23 18  17 40.83  +18 48.7   1.505  2.172    57.9 / 325  18.3  134  .15

          24 18  17 38.47  +19 36.0   1.507  2.182    57.8 / 324  18.3  132  .23

          25 18  17 36.07  +20 22.8   1.509  2.192    57.7 / 323  18.3  128  .31

          26 18  17 33.62  +21 09.1   1.512  2.201    57.5 / 323  18.3  122  .41

          27 18  17 31.12  +21 54.7   1.515  2.211    57.3 / 322  18.3  114  .50

          28 18  17 28.57  +22 39.8   1.518  2.221    57.0 / 321  18.4  106  .60

          29 18  17 25.98  +23 24.2   1.523  2.230    56.7 / 320  18.4   97  .70

          30 18  17 23.35  +24 07.8   1.527  2.240    56.3 / 320  18.4   88  .79

     May   1 18  17 20.67  +24 50.7   1.532  2.250    55.9 / 319  18.4   79  .87

NAKANO

         **** Don't distribute anyone except personal use only ****

                (C) Copyright 2004 OAA/ComputingSection

write mail from CFAD0::NAKANO on 2004-04-02 05:26:25(JST).

 

戻ります。